Home > Weather > Korbach > Past weeks

Flag for Germany Weather for the Past 2 Weeks in Korbach, Hesse, Germany

Now
37 °F

Broken clouds.


Feels Like: 37 °F
Forecast: 39 / 54 °F
Wind: 1 mph from North

Location: Fritzlar Airport

Current Time: Apr 30, 2016 at 9:43:30 AM

Latest Report: Apr 30, 2016 at 8:20 AM


Visibility: N/A

Pressure: 30.04 "Hg

Humidity: 87%

Dew Point: 34 °F

Location of KorbachLocation

Historic Weather in Korbach — Graph

°F

Korbach Temperature Yesterday

Maximum temperature yesterday: 54 °F (at 4:20 PM)
Minimum temperature yesterday: 30 °F (at 4:20 AM)
Average temperature yesterday: 44 °F

High & Low Weather Summary for the Past Weeks

 TemperatureHumidityPressure
High66 °F (Apr 21, 6:20 PM)100% (Apr 18, 4:20 AM)30.45 "Hg (Apr 18, 4:20 AM)
Low28 °F (Apr 24, 3:20 AM)19% (Apr 21, 3:20 PM)29.50 "Hg (Apr 26, 2:20 AM)
Average44 °F70%29.92 "Hg
* Reported Apr 15 7:20 AM — Apr 30 7:20 AM, Korbach, Weather by CustomWeather, © 2016

Note: Actual official high and low records may vary slightly from our data, if they occured in-between our weather recording intervals... More about our weather records

Advertising

Korbach Weather History for the Previous 24 Hours

Scroll right to see more
 ConditionsComfort  
Time TempWeatherWind HumidityBarometerVisibility
7:20 AM
Sat, Apr 30
34 °FBroken clouds.2 mph93%30.04 "HgN/A
6:20 AM32 °FPartly cloudy.3 mph93%30.04 "HgN/A
5:20 AM32 °FPassing clouds.2 mph93%30.04 "HgN/A
4:20 AM34 °FPassing clouds.1 mph93%30.04 "HgN/A
3:20 AM34 °FPassing clouds.2 mph93%30.04 "HgN/A
2:20 AM37 °FPassing clouds.1 mph87%30.01 "HgN/A
1:20 AM39 °FPassing clouds.2 mph81%30.04 "HgN/A
12:20 AM41 °FPassing clouds.2 mph76%30.04 "HgN/A
11:20 PM
Fri, Apr 29
39 °FPartly cloudy.1 mph81%30.04 "HgN/A
10:20 PM39 °FPassing clouds.3 mph81%30.04 "HgN/A
9:20 PM46 °FPartly sunny.5 mph53%30.04 "HgN/A
8:20 PM50 °FBroken clouds.8 mph47%30.01 "HgN/A
7:20 PM52 °FBroken clouds.13 mph41%30.01 "HgN/A
6:20 PM54 °FBroken clouds.13 mph41%30.01 "HgN/A
5:20 PM54 °FPartly sunny.16 mph44%30.01 "HgN/A
4:20 PM54 °FPartly sunny.15 mph44%30.01 "HgN/A
3:20 PM52 °FPartly sunny.14 mph47%30.01 "HgN/A
2:20 PM50 °FPartly sunny.17 mph47%30.01 "HgN/A
1:20 PM52 °FPartly sunny.21 mph41%30.01 "HgN/A
12:20 PM52 °FScattered clouds.15 mph47%30.01 "HgN/A
12:00 PM52 °FScattered clouds.12 mph50%30.01 "HgN/A
11:20 AM48 °FPartly sunny.16 mph54%30.04 "HgN/A
10:20 AM46 °FPartly sunny.9 mph66%30.04 "HgN/A
9:20 AM43 °FPartly sunny.10 mph76%30.04 "HgN/A
Weather by CustomWeather, © 2016

See weather overviewHow to use our weather pages